Location: Mauries
(43.6188°N, 0.3322°W)
Time: 19:28:10
(UTC+00:00)

COSMO-SKYMED 1 - Pass Details

Date: 14 January 2026
Orbit: 578 x 579 km, 97.9° (Epoch: 11 February)

Event Time Altitude Azimuth Distance (km) Brightness Sun altitude
Rises 05:37:29 0° 170° (S) 2,784 6.2 -20.3°
Reaches altitude 10° 05:39:37 10° 172° (S) 1,889 5.3 -19.9°
Maximum altitude 05:43:43 74° 257° (WSW) 609 2.3 -19.2°
Enters shadow 05:46:06 24° 339° (NNW) 1,213 3.7 -18.8°
